Regional Weather Roundup
Issued by NWS Kansas City/Pleasant Hill, MO

Home | Current Version | Previous Version | Text Only | Print | Product List | Glossary Off
Versions: 1 2 3 4 5 6 7 8 9 10 11 12 13 14 15 16 17 18 19 20 21 22 23 24 25 26 27

000
ASUS43 KEAX 010210
RWREAX

WEATHER ROUNDUP FOR EASTERN KANSAS AND NORTHWEST MISSOURI
NATIONAL WEATHER SERVICE KANSAS CITY/PLEASANT HILL MO
900 PM CDT SUN APR 30 2017

KSZ040-057-103>105-MOZ028-029-037-043-010300-
...KANSAS CITY METROPOLITAN AREA...

CITY           SKY/WX    TMP DP  RH WIND       PRES   REMARKS
K.C. INTL      CLOUDY    46  41  82 S12       29.48F
K.C. DOWNTOWN  CLOUDY   N/A N/A N/A S12       29.48F
LEES SUMMIT    CLOUDY    49  39  68 S9        29.49F
OLATHE - IXD   CLOUDY    45  39  79 S10       29.48F
OLATHE - OJC   CLOUDY    45  41  86 S12       29.48F
LAWRENCE       CLOUDY    46  42  86 SE10      29.47F

$$

MOZ001>008-011>017-020>025-030>033-038>040-044>046-053-054-010300-
...NORTHERN AND CENTRAL MISSOURI...

CITY           SKY/WX    TMP DP  RH WIND       PRES   REMARKS
ST. JOSEPH     CLOUDY    49  41  74 S13       29.48S
MOSBY          CLOUDY    50  36  57 SW10      29.50S
WHITEMAN AFB   CLOUDY    51  39  63 S15G23    29.50F
CLINTON        CLOUDY    50  39  66 S16G23    29.53S
SEDALIA        CLOUDY    53  41  63 SW16G25   29.54S
WARSAW         NOT AVBL
CHILLICOTHE      N/A     52  41  66 S5        29.50F
KIRKSVILLE     CLOUDY    51  31  46 SW7       29.52R

$$

MOZ041-047>049-056>058-063>065-088>090-097-010300-
...EASTERN AND SOUTHERN MISSOURI...

CITY           SKY/WX    TMP DP  RH WIND       PRES   REMARKS
ST. LOUIS INTL PTCLDY    69  48  47 S17G32    29.52R
SPIRIT OF STL  CLEAR     66  50  56 S12         N/A
COLUMBIA       CLOUDY    55  44  66 SW8       29.54R
JEFFERSON CITY CLOUDY    61  41  47 W12       29.53R
ROLLA          CLOUDY    57  44  62 SW17      29.54R
OSAGE BEACH    MOCLDY    56  37  49 SW17G26   29.56R
SPRINGFIELD    CLOUDY    50  40  68 SW18G26   29.57S
BRANSON        CLOUDY    48  41  76 SW10G18   29.62S
JOPLIN         CLOUDY    50  40  68 SW21G30   29.54S
WEST PLAINS    CLEAR     55  38  52 SW17G25   29.63R

$$

IAZ060-094-KSZ022-034>040-054-083-096-NEZ052-066-093-010300-
...KANSAS...SOUTHEAST NEBRASKA AND IOWA...

CITY           SKY/WX    TMP DP  RH WIND       PRES   REMARKS
TOPEKA         CLOUDY    46  43  89 S9        29.45F
MANHATTAN      LGT RAIN  46  44  93 SW3       29.43F
EMPORIA        CLOUDY    44  43  96 S7        29.45S
CHANUTE        LGT RAIN  45  42  89 S9        29.47F
WICHITA        CLOUDY    43  40  89 W20       29.51R WCI  34
OMAHA          CLOUDY    43  38  82 N14       29.52F
LINCOLN        CLOUDY    41  40  96 N16       29.52S WCI  33
FALLS CITY     CLOUDY    46  41  82 S8        29.46R
LAMONI         CLOUDY    50  49  96 SW3       29.48R
DES MOINES     CLOUDY    46  44  93 NE9       29.48F

$$





USA.gov is the U.S. government's official web portal to all federal, state and local government web resources and services.